Volver al catálogo

USA 22

ActivoMilitarLEO
NORAD 17997·PAYLOAD·🇺🇸 United States

Lanzado May 15, 1987 desde Vandenberg Space Force Base

Loading…

Próximos Pases (próximas 24 horas)

TLE

ActualizadoSource: Space-Track

Época: Sep 14, 2026, 13:03 UTC

1 17997U 87043A   26257.54401408  .00006989  00000-0  35615-3 0  9998
2 17997  63.2885 294.2981 0667564 109.8124 257.6140 14.15044858119120

Sigue USA 22 en tiempo real con AllMySat

Download on the App Store